This demonstration page uses our WeatherBlox Daily Observations layout. Learn more.

36.17497, -115.13722

Hourly Observations for January 3, 2020

Temp ( °F °C ) Dew Point ( °F °C ) Humidity (%) Winds ( mph kmh ) Pressure ( in mb ) Visibility ( mi km ) Precip ( " mm )
12:53 am 00:53 Clear 50 10 24 -4.4 36 36 NW 12 19 30.22 1023 10 16.0934 0 0
1:53 am 01:53 Clear 46 7.8 25 -3.9 44 44 W 5 7 30.25 1024 10 16.0934 0 0
2:53 am 02:53 Clear 45 7.2 25 -3.9 46 46 WNW 8 13 30.27 1025 10 16.0934 0 0
3:53 am 03:53 Clear 47 8.3 25 -3.9 42 42 WNW 17 28 30.27 1025 10 16.0934 0 0
4:53 am 04:53 Clear 45 7.2 25 -3.9 46 46 W 8 13 30.29 1026 10 16.0934 0 0
5:53 am 05:53 Clear 43 6.1 26 -3.3 51 51 WNW 6 9 30.31 1026 10 16.0934 0 0
6:53 am 06:53 Sunny 42 5.6 26 -3.3 53 53 WNW 6 9 30.35 1028 10 16.0934 0 0
7:53 am 07:53 Sunny 43 6.1 27 -2.8 53 53 WNW 3 6 30.38 1029 10 16.0934 0 0
8:53 am 08:53 Sunny 47 8.3 30 -1.1 52 52 Calm 30.41 1030 10 16.0934 0 0
9:53 am 09:53 Sunny 51 10.6 28 -2.2 41 41 Calm 30.41 1030 10 16.0934 0 0
10:53 am 10:53 Sunny 56 13.3 28 -2.2 34 34 Calm 30.38 1029 10 16.0934 0 0
11:53 am 11:53 Sunny 58 14.4 27 -2.8 31 31 Calm 30.35 1028 10 16.0934 0 0
12:53 pm 12:53 Sunny 59 15 27 -2.8 29 29 SE 3 6 30.33 1027 10 16.0934 0 0
1:53 pm 13:53 Sunny 60 15.6 27 -2.8 28 28 ESE 6 9 30.33 1027 10 16.0934 0 0
2:53 pm 14:53 Sunny 59 15 26 -3.3 28 28 E 6 9 30.33 1027 10 16.0934 0 0
3:53 pm 15:53 Sunny 59 15 27 -2.8 29 29 SE 3 6 30.35 1028 10 16.0934 0 0
4:53 pm 16:53 Clear 57 13.9 28 -2.2 33 33 ESE 3 6 30.36 1028 10 16.0934 0 0
5:53 pm 17:53 Clear 53 11.7 29 -1.7 40 40 Calm 30.37 1029 10 16.0934 0 0
6:53 pm 18:53 Clear 51 10.6 30 -1.1 44 44 WNW 5 7 30.39 1029 10 16.0934 0 0
7:53 pm 19:53 Clear 49 9.4 31 -0.6 50 50 WNW 5 7 30.39 1029 10 16.0934 0 0
8:53 pm 20:53 Clear 48 8.9 31 -0.6 52 52 WNW 5 7 30.4 1029 10 16.0934 0 0
9:53 pm 21:53 Clear 46 7.8 31 -0.6 56 56 WNW 5 7 30.4 1030 10 16.0934 0 0
10:53 pm 22:53 Clear 45 7.2 31 -0.6 58 58 N 3 6 30.4 1029 10 16.0934 0 0
11:53 pm 23:53 Clear 43 6.1 31 -0.6 63 63 WNW 5 7 30.39 1029 10 16.0934 0 0

Powered by AerisWeather